Miami Beach, Florida, United States (33109)
Lat: 25.79N, Lon: 80.13W
Wx Zone: FLZ173
Local Info
Past Weather Observations for Tuesday, August 19, 2014

NOTE: This archive is for the closest National Weather Service station to Miami Beach. Information may differ from the station used for current weather conditions.

Click here for Long-term Archive

Time Weather Temperature Dewpoint Humidity Pressure Winds Precip Visibility
23:53
Partly Cloudy
82°F / 28°C 75°F / 24°C 79% 30.04 in
(1017 mb)
SSE 3.5 mph
(SSE 6 kph)
- 10SM
22:53
Clear
84°F / 29°C 75°F / 24°C 74% 30.04 in
(1017 mb)
SE 3.5 mph
(SE 6 kph)
- 10SM
21:53
Clear
82°F / 28°C 73°F / 23°C 74% 30.04 in
(1017 mb)
SE 3.5 mph
(SE 6 kph)
- 10SM
20:53
Partly Cloudy
84°F / 29°C 73°F / 23°C 70% 30.04 in
(1017 mb)
SE 4.6 mph
(SE 7 kph)
- 10SM
19:53
Partly Cloudy
84°F / 29°C 73°F / 23°C 70% 30.04 in
(1017 mb)
SE 4.6 mph
(SE 7 kph)
- 10SM
18:53
Mostly Cloudy
84°F / 29°C 73°F / 23°C 70% 30.01 in
(1016 mb)
SE 6.9 mph
(SE 11 kph)
- 10SM
17:53
Partly Cloudy
88°F / 31°C 73°F / 23°C 62% 30.01 in
(1016 mb)
SE 8.1 mph
(SE 13 kph)
- 10SM
16:53
Partly Cloudy
90°F / 32°C 73°F / 23°C 59% 29.98 in
(1015 mb)
SE 10.4 mph
(SE 17 kph)
- 10SM
15:53
Partly Cloudy
91°F / 33°C 73°F / 23°C 56% 29.98 in
(1015 mb)
SE 10.4 mph
(SE 17 kph)
- 10SM
14:53
Mostly Cloudy
93°F / 34°C 72°F / 22°C 49% 30.01 in
(1016 mb)
Calm - 10SM
13:53
Mostly Cloudy
88°F / 31°C 73°F / 23°C 62% 30.01 in
(1016 mb)
Calm 0.00 in
(0.00 mm)
10SM
13:29
Mostly Cloudy
82°F / 28°C 73°F / 23°C 74% 30.04 in
(1017 mb)
SSE 3.5 mph
(SSE 6 kph)
0.00 in
(0.00 mm)
10SM
12:53
Mostly Cloudy
Thunder Storms
84°F / 29°C 73°F / 23°C 70% 30.04 in
(1017 mb)
SW 11.5 mph
(SW 19 kph)
0.00 in
(0.00 mm)
10SM
11:53
Overcast
Light Rain
88°F / 31°C 73°F / 23°C 62% 30.04 in
(1017 mb)
ESE 4.6 mph
(ESE 7 kph)
0.00 in
(0.00 mm)
10SM
10:53
Mostly Cloudy
Partly Cloudy
90°F / 32°C 73°F / 23°C 59% 30.06 in
(1018 mb)
E 5.8 mph
(E 9 kph)
- 10SM
09:53
Mostly Cloudy
Partly Cloudy
90°F / 32°C 75°F / 24°C 63% 30.06 in
(1018 mb)
SE 4.6 mph
(SE 7 kph)
- 10SM
08:53
Mostly Cloudy
88°F / 31°C 75°F / 24°C 66% 30.06 in
(1018 mb)
SE 3.5 mph
(SE 6 kph)
- 10SM
07:53
Mostly Cloudy
84°F / 29°C 77°F / 25°C 79% 30.04 in
(1017 mb)
E 5.8 mph
(E 9 kph)
- 10SM
06:53
Mostly Cloudy
82°F / 28°C 77°F / 25°C 84% 30.04 in
(1017 mb)
Calm - 10SM
05:53
Partly Cloudy
82°F / 28°C 75°F / 24°C 79% 30.01 in
(1016 mb)
Calm - 10SM
04:53
Partly Cloudy
82°F / 28°C 75°F / 24°C 79% 30.01 in
(1016 mb)
NW 3.5 mph
(NW 6 kph)
- 9SM
03:53
Partly Cloudy
82°F / 28°C 75°F / 24°C 79% 30.01 in
(1016 mb)
Calm - 9SM
02:53
Partly Cloudy
82°F / 28°C 75°F / 24°C 79% 29.98 in
(1015 mb)
Calm - 9SM
01:53
Partly Cloudy
82°F / 28°C 75°F / 24°C 79% 30.01 in
(1016 mb)
Calm - 9SM
00:53
Partly Cloudy
82°F / 28°C 75°F / 24°C 79% 30.01 in
(1016 mb)
SE 3.5 mph
(SE 6 kph)
- 9SM
Time Weather Temperature Dewpoint Humidity Pressure Winds Precip Visibility


Weather for websites

WeatherForYou.com, LLC is not responsible for any damages or problems caused by this service. Current weather conditions are obtained from the closest station including government and personal stations which may have varying degrees of accuracy. Weather forecasts are derived from the NOAA NDFD. Like all things, this site belongs to Jesus Christ... He just trusts me to maintain it. If you have any questions or comments email webmaster@weatherforyou.com

Copyright © 2014, WeatherForYou.com LLC. All rights reserved.